Temperature
14 15 16 16 19 21 21 22 22 22 22 21 21 22 23 23 23 22 18 18 17 17 17 17 17 17 17 17 17 17 17 17 17 17 17 17 16 16 16 16 16 16 16 16 16 16 16 16 16
14 15 15 17 20 21 22 22 22 22 21 20 20 21 22 21 19 18 17 17 17 17 17 17 17 17 17 17 17 17 17 17 17 17 17 17 16 16 16 16 16 16 16 16 16 16 16 16 16
14 14 16 19 20 21 22 22 22 21 19 19 20 20 21 20 18 17 17 17 17 16 16 17 17 17 17 17 17 16 17 17 17 17 16 16 16 16 16 16 16 16 16 16 16 16 16 15 15
13 14 16 18 19 21 22 22 21 20 19 19 20 20 19 17 17 17 17 17 16 16 16 17 17 17 17 16 16 16 16 16 16 16 16 16 16 16 16 16 16 16 16 16 16 15 15 15 15
13 15 17 18 19 20 21 20 19 21 20 19 20 20 19 16 17 17 17 17 16 16 16 16 16 16 16 16 16 16 16 16 16 16 16 16 16 16 16 16 16 16 16 15 15 15 15 15 15
14 16 17 18 19 20 20 18 19 20 20 19 19 20 18 16 17 17 17 16 16 16 16 16 16 16 16 16 16 16 16 16 16 16 16 16 16 16 16 16 15 15 15 15 15 15 15 14 14
14 16 17 19 19 19 19 18 19 20 20 19 19 19 18 16 16 16 16 16 15 15 15 16 16 16 16 16 16 16 16 16 16 16 16 16 16 16 15 15 15 15 15 15 15 15 14 14 14
13 16 16 18 18 19 19 18 18 19 19 17 18 19 18 15 16 16 15 15 15 15 15 15 15 15 15 15 16 16 16 16 16 16 16 15 15 15 15 15 15 15 15 15 15 14 14 14 14
12 14 16 17 18 18 18 17 16 16 17 16 16 17 16 15 15 15 15 15 15 15 15 15 15 15 15 15 15 15 15 15 15 15 15 15 15 15 15 15 15 15 15 15 14 14 14 14 13
12 14 16 17 17 17 16 17 16 16 17 16 15 15 15 15 15 14 15 15 15 15 15 15 15 15 15 15 15 15 15 15 15 15 15 15 15 15 15 14 14 14 14 14 14 14 13 13 13
12 14 15 15 14 14 15 15 15 17 17 17 16 15 14 14 14 14 14 15 14 15 15 15 15 15 15 15 15 15 15 15 15 15 15 15 15 14 14 14 14 14 14 14 14 13 13 13 13
12 13 13 13 12 13 14 14 14 16 16 15 15 14 14 14 14 14 14 14 14 14 15 14 15 15 15 14 14 14 14 14 14 14 14 14 14 14 14 14 14 14 14 14 13 13 13 12 12
12 12 12 12 12 12 12 13 14 14 13 14 14 13 13 14 14 14 14 14 14 14 14 14 14 14 14 14 14 14 14 14 14 14 14 14 14 14 14 14 14 14 13 13 13 13 12 12 12
11 11 12 12 12 12 13 13 13 13 12 13 13 13 13 13 13 13 13 13 14 14 14 14 14 14 14 14 14 14 14 14 14 14 14 14 14 14 13 13 13 13 13 13 13 12 12 12 12
11 11 12 12 12 12 13 13 13 12 12 12 12 12 12 12 13 13 13 13 13 14 14 14 14 14 14 14 14 14 14 14 14 14 14 13 13 13 13 13 13 13 13 13 12 12 12 12 12
11 11 11 12 12 12 13 13 13 11 11 12 12 12 12 12 12 12 13 13 13 13 13 13 13 13 14 13 13 13 13 13 13 13 13 13 13 13 13 13 13 12 12 12 12 12 12 11 11
10 11 11 11 12 12 13 13 12 11 11 12 12 12 11 11 11 12 12 12 12 12 13 13 13 13 13 13 13 13 13 13 13 13 13 13 13 13 12 12 12 12 12 12 12 11 11 11 11
10 11 11 11 11 12 12 12 12 11 11 12 12 12 11 11 11 11 12 12 12 12 12 12 12 12 13 13 13 12 12 12 12 12 12 12 12 12 12 12 12 12 12 11 11 11 11 11 10
10 11 11 11 11 11 11 11 11 11 11 11 11 11 11 11 11 11 11 11 12 12 12 12 12 12 12 12 12 12 12 12 12 12 12 12 12 12 12 11 11 11 11 11 11 11 10 10 10
10 10 10 10 10 11 11 10 11 11 11 11 11 11 11 10 10 10 11 11 11 12 12 12 12 12 12 12 12 12 12 11 11 11 11 11 11 11 11 11 11 11 11 10 10 10 10 10 9
9 10 10 10 9 10 10 10 10 11 10 10 10 10 10 10 10 10 10 10 11 11 11 11 11 11 11 11 11 11 11 11 11 11 11 11 11 11 11 10 10 10 10 10 10 10 10 9 9
9 9 9 9 10 9 10 11 11 11 10 10 10 9 9 9 9 9 10 10 10 11 11 11 11 11 11 11 11 11 11 11 11 11 11 10 10 10 10 10 10 10 10 9 9 9 9 9 9
8 9 9 9 9 9 10 10 12 11 11 10 10 9 9 9 9 9 9 9 10 10 10 10 11 11 11 11 11 11 10 10 10 10 10 10 10 10 10 10 9 9 9 9 9 9 9 8 8
8 8 9 9 9 9 9 10 12 11 11 11 10 9 8 8 8 8 9 9 9 9 10 10 10 10 10 10 10 10 10 10 10 9 10 9 9 9 9 9 9 9 9 9 9 8 8 8 8
8 8 8 8 8 9 9 10 11 10 10 10 9 8 7 7 7 8 8 8 9 9 9 9 9 10 10 10 10 10 10 9 9 9 9 9 9 9 9 9 9 9 9 8 8 8 8 8 8
7 8 8 9 9 10 9 10 11 9 8 7 7 7 6 6 6 7 7 8 8 8 9 9 9 9 9 9 9 9 9 9 9 9 9 9 9 8 8 8 8 8 8 8 8 8 8 7 7
7 7 7 8 8 9 9 9 9 7 7 7 6 6 6 5 6 6 7 7 8 8 8 8 9 9 9 9 9 9 8 8 8 8 8 8 8 8 8 8 8 8 8 7 7 7 7 7 7
7 7 7 7 8 9 9 9 10 8 7 7 6 5 5 4 5 5 6 6 7 7 8 8 8 8 8 8 8 8 8 8 8 8 8 8 8 8 7 7 7 7 7 7 7 7 7 7 6
5 6 6 7 7 9 9 10 8 7 7 6 6 4 4 4 4 4 5 6 6 6 7 7 7 8 8 8 8 8 8 7 7 7 7 7 7 7 7 7 7 7 6 6 6 6 6 6 6
5 5 6 7 6 7 9 8 6 6 6 5 5 4 3 3 3 4 4 5 5 6 6 6 7 7 7 7 7 7 7 7 7 7 7 7 7 7 6 6 6 6 6 6 6 6 6 5 5
Wind_Speed
4 3 2 3 5 7 14 10 7 7 7 6 5 5 6 5 3 2 4 11 13 15 16 18 17 17 17 17 17 17 17 16 16 16 15 15 15 15 15 15 15 15 15 14 14 14 14 14 14
3 2 3 4 8 12 13 12 10 8 5 6 6 5 5 5 1 4 6 11 14 15 16 17 18 17 17 17 17 17 17 16 15 15 15 15 14 14 15 15 15 14 14 14 14 13 13 13 13
3 4 4 5 10 16 14 9 9 6 6 6 6 4 3 3 4 4 7 13 15 15 16 17 18 18 17 17 17 17 16 16 15 15 15 14 14 14 14 14 14 14 14 13 13 13 12 12 12
3 4 4 9 17 17 12 7 7 8 7 6 6 5 3 1 2 4 10 14 15 15 16 17 18 18 17 17 17 16 15 15 15 15 14 14 14 14 14 13 13 13 13 13 13 12 12 12 11
4 5 9 13 18 15 11 6 7 9 8 7 7 5 4 2 3 8 12 14 15 15 15 18 17 17 17 16 16 16 15 15 14 14 14 14 14 14 13 13 13 13 13 12 12 12 12 11 11
6 6 11 18 19 14 11 9 8 9 8 7 8 7 4 4 6 9 12 13 14 14 14 17 17 16 16 16 16 15 15 15 14 14 14 13 13 13 13 13 13 12 12 12 12 11 11 11 10
8 9 14 18 17 15 12 9 10 10 10 8 7 7 5 5 6 9 11 12 13 13 13 14 15 16 15 15 15 15 15 14 14 14 14 13 13 13 12 12 12 11 11 11 11 11 11 10 10
5 6 13 15 17 16 11 9 7 10 9 5 6 6 7 6 8 10 11 11 11 12 12 13 14 14 14 14 14 15 14 14 14 14 13 13 13 12 11 11 11 11 10 10 10 10 10 9 9
4 8 15 16 14 12 9 8 6 5 7 5 4 2 4 10 10 11 10 10 11 11 10 11 12 12 13 13 14 14 14 14 14 13 13 12 10 10 9 10 10 10 9 9 9 9 9 9 8
7 12 17 10 8 6 6 8 8 8 9 7 5 3 7 10 11 12 12 12 12 11 11 10 11 11 12 11 12 11 11 12 11 10 11 9 8 8 8 10 10 9 9 9 8 8 7 5 5
8 12 11 7 5 4 5 6 7 9 9 9 9 9 10 11 11 11 11 12 12 11 10 9 10 11 10 9 9 8 8 9 9 9 9 8 7 7 7 7 7 7 7 6 6 5 3 3 3
9 10 9 6 4 4 5 5 6 10 7 4 6 9 11 11 11 11 11 11 10 10 10 9 10 9 10 9 7 7 7 7 7 8 9 7 5 5 5 5 5 4 4 4 3 2 3 3 2
11 9 8 5 3 3 4 6 6 7 5 3 7 9 11 11 10 9 9 9 9 9 9 9 9 9 9 8 7 6 6 7 7 7 7 7 5 5 5 4 4 4 3 3 2 2 2 2 1
10 8 7 6 5 4 5 6 6 6 3 6 8 9 9 9 9 9 9 8 8 8 8 8 8 8 8 7 6 6 6 7 7 6 6 6 6 5 5 4 3 3 3 2 2 2 1 1 1
8 8 7 6 6 5 5 7 9 5 5 6 8 8 7 7 8 9 9 8 8 8 8 8 8 8 8 7 7 6 6 7 6 6 6 6 5 5 5 3 3 2 2 3 2 2 1 1 1
9 10 9 6 6 6 9 12 7 5 7 8 8 8 7 6 7 7 7 7 7 7 8 7 7 8 8 7 6 5 6 6 5 6 6 6 6 5 4 3 3 3 2 2 2 2 1 1 1
8 12 12 7 6 6 9 10 6 5 8 9 9 8 8 7 6 6 6 6 6 7 7 7 7 8 7 7 6 6 6 5 5 5 5 5 5 5 4 3 3 3 2 2 2 1 1 1 0
11 11 12 9 7 8 9 8 5 6 8 9 9 9 8 8 7 5 5 6 6 6 6 7 7 7 7 6 5 5 5 4 4 4 4 5 5 5 4 3 3 3 2 2 2 1 1 0 0
10 9 9 7 5 7 10 9 7 6 7 8 8 8 8 7 5 4 5 5 6 6 6 7 7 7 6 5 5 5 4 4 3 3 4 5 5 5 4 3 3 2 2 2 2 2 1 0 0
9 9 7 4 3 5 7 7 7 7 8 9 9 9 8 6 5 4 4 4 6 7 7 6 7 7 7 6 5 3 4 3 3 3 4 4 5 5 4 3 3 2 2 2 2 2 1 1 1
7 10 8 5 2 3 6 7 8 7 7 7 8 8 8 7 6 5 4 4 4 5 6 6 7 7 7 7 5 5 4 3 2 3 3 3 4 5 4 4 3 2 2 2 2 2 2 2 1
7 7 7 7 6 4 6 7 9 9 8 8 8 8 7 6 6 5 4 4 4 4 4 6 7 7 7 7 7 8 6 5 4 4 3 4 4 4 4 4 4 3 2 2 2 2 2 2 2
4 5 6 7 6 5 7 7 8 9 10 11 10 9 7 6 5 5 4 3 2 2 3 5 6 7 7 7 8 7 5 4 3 4 5 4 4 4 4 4 3 3 2 2 2 2 2 2 2
3 3 3 4 5 7 9 8 8 8 12 11 9 8 6 5 5 4 3 2 2 1 2 3 5 6 7 7 7 7 7 6 6 6 5 4 3 3 3 3 3 3 2 2 2 2 2 1 2
4 4 3 4 5 6 7 8 7 6 7 8 8 7 5 4 4 3 3 3 2 3 4 4 5 6 6 7 7 7 7 7 7 6 6 5 3 3 3 3 3 3 2 2 2 2 1 2 2
6 6 4 4 5 3 5 8 4 1 2 2 3 4 4 3 3 3 3 2 3 3 4 4 5 5 6 6 6 6 6 5 5 6 5 5 3 3 4 3 3 2 2 2 2 2 2 2 2
5 6 4 1 2 3 5 4 3 1 2 2 2 1 2 2 2 2 2 2 2 2 4 5 5 5 5 6 6 6 6 6 6 6 5 4 3 3 4 4 3 2 2 2 2 2 2 2 2
2 4 3 3 4 5 5 6 5 3 3 2 1 1 1 1 1 1 1 2 2 2 2 3 5 5 5 5 5 5 5 6 6 5 5 5 5 5 5 4 3 3 3 2 2 2 2 2 2
3 4 3 3 3 4 5 4 1 3 4 4 3 1 1 1 1 1 1 2 2 2 2 3 4 4 4 5 5 6 5 5 5 5 5 5 5 5 5 4 4 3 3 2 2 2 2 2 3
3 4 5 5 4 4 4 3 3 1 1 2 1 0 1 1 1 1 1 1 2 2 2 3 4 4 4 5 5 5 5 5 5 5 5 5 5 4 4 4 4 3 3 3 3 3 3 3 4
Wind_Direction
288 267 232 207 207 219 228 217 214 197 197 195 182 191 198 196 196 125 105 151 146 147 147 146 141 140 138 134 131 128 126 126 125 124 121 119 117 115 112 109 106 103 101 98 96 94 92 90 88
260 219 205 209 215 217 221 216 209 199 176 165 178 189 190 198 143 102 136 150 149 148 149 148 142 141 139 136 133 131 128 125 125 125 123 122 119 116 113 109 107 105 102 100 97 95 94 92 90
218 220 210 204 218 221 217 201 204 187 177 181 179 195 202 175 149 137 142 151 151 150 150 144 143 141 140 138 135 132 130 128 126 124 123 123 121 118 115 112 109 107 104 102 100 99 97 95 93
193 195 215 220 221 223 224 197 189 177 183 194 184 169 171 114 145 138 144 154 152 151 149 146 145 143 141 139 137 135 132 130 128 125 123 122 122 118 116 114 112 109 108 107 103 101 100 99 96
206 203 207 220 226 221 221 214 194 192 186 186 191 184 167 118 118 140 152 158 155 152 149 149 146 143 142 141 139 137 134 132 130 127 125 123 120 119 118 116 114 111 109 109 107 104 101 99 97
194 208 213 218 220 218 216 210 202 205 194 188 187 190 171 127 137 147 155 159 155 151 149 147 144 141 142 141 140 138 136 134 131 128 126 124 122 119 117 116 116 113 111 110 108 104 101 97 95
209 206 220 222 219 218 214 202 205 205 202 196 188 187 175 144 140 150 154 155 153 152 149 148 151 147 142 140 139 137 136 134 132 129 127 125 122 120 117 115 115 114 113 111 109 106 102 97 95
223 210 222 222 221 220 208 202 212 210 207 184 196 193 182 154 144 147 148 151 153 154 153 153 154 154 152 148 140 137 135 134 131 129 127 124 121 119 117 116 113 113 113 113 110 108 104 100 95
210 215 219 216 220 219 201 201 198 205 192 195 205 218 140 138 145 148 149 154 157 158 157 157 156 155 154 151 146 141 137 134 133 130 128 132 132 128 124 115 112 110 111 112 111 109 106 106 101
203 219 223 219 226 216 200 207 192 188 194 204 200 176 142 148 156 162 165 165 166 165 163 161 158 156 154 151 151 151 148 147 147 145 144 141 135 128 123 115 111 110 110 112 110 112 119 123 113
204 222 224 222 227 223 207 215 202 199 208 211 200 180 164 164 166 170 174 172 171 167 164 162 160 158 155 152 155 153 150 152 152 152 149 142 135 132 131 129 123 120 121 119 122 133 126 116 105
207 222 223 223 223 230 221 215 220 219 225 222 193 174 169 170 174 177 176 174 171 168 168 163 159 158 158 155 155 154 153 154 153 155 155 151 143 141 138 134 132 132 129 128 131 127 127 122 119
213 214 219 223 222 225 221 228 230 235 265 208 162 168 175 179 181 180 176 173 172 171 168 165 161 160 157 153 153 154 154 155 153 154 159 159 152 148 143 140 137 134 131 136 138 142 140 136 119
207 208 210 218 221 225 222 243 231 246 241 183 172 179 184 185 184 181 177 175 173 170 169 166 164 160 153 151 154 154 152 149 150 152 157 160 156 153 152 148 142 137 139 137 147 151 155 150 144
200 203 209 213 210 214 225 239 231 236 207 191 189 184 188 192 188 188 183 179 176 173 167 167 164 160 154 151 151 147 150 150 150 151 154 156 154 156 158 154 149 144 149 148 146 149 157 148 156
197 201 207 210 208 214 214 230 225 212 205 205 200 194 192 195 191 188 182 174 174 173 170 168 163 162 158 154 151 141 145 147 148 150 152 157 158 161 158 153 153 148 150 157 150 162 168 173 188
192 205 210 208 204 208 213 229 225 212 207 207 206 201 196 191 191 187 177 169 170 174 172 169 166 163 158 152 145 140 137 139 144 149 150 155 157 161 159 154 148 151 153 160 156 166 182 188 235
196 203 208 208 203 207 214 220 224 220 213 209 206 201 195 192 193 185 175 172 169 168 169 168 166 163 153 148 143 137 134 135 136 141 146 154 155 160 159 149 147 150 153 155 160 151 149 168 231
201 200 208 219 220 214 215 217 224 221 213 211 207 201 194 193 187 176 170 171 170 168 167 167 167 166 160 162 164 161 157 151 143 135 142 151 151 151 150 146 147 152 163 167 176 165 153 149 221
200 198 207 209 208 217 208 227 228 221 216 215 208 202 194 187 179 170 172 176 178 177 173 170 169 170 171 172 169 162 153 145 141 139 139 149 147 146 148 153 159 159 163 165 173 175 196 204 242
204 201 200 199 212 205 203 226 221 220 217 220 217 210 199 193 187 179 175 182 180 181 180 178 177 171 169 162 149 139 133 129 141 153 155 154 150 149 150 155 156 169 181 185 190 197 207 218 225
207 202 200 195 196 210 208 223 220 212 212 214 214 210 203 194 186 183 180 182 186 190 183 177 176 169 165 164 167 167 172 171 182 171 160 150 145 142 147 152 156 161 172 188 194 204 219 217 222
206 196 204 205 207 219 219 220 219 198 213 214 213 211 206 202 196 190 188 187 194 187 183 178 172 171 167 171 174 173 171 163 155 153 149 147 137 137 141 148 151 153 156 175 188 195 206 220 229
173 166 181 199 210 221 214 215 219 201 210 212 208 204 200 198 199 198 199 187 182 175 187 179 173 172 171 174 179 178 169 159 157 164 161 154 144 138 139 142 143 145 147 161 176 186 191 210 229
178 171 173 193 208 223 202 220 231 207 210 216 211 203 197 193 186 185 195 204 191 183 184 179 175 174 174 176 179 177 173 169 171 174 173 161 159 159 162 152 152 146 140 147 157 172 182 199 215
204 202 207 211 208 219 201 220 222 192 202 207 213 199 191 190 187 188 195 208 207 200 186 183 181 178 175 174 175 172 169 168 172 176 171 165 164 163 157 153 147 144 143 148 158 177 190 199 217
188 203 238 267 219 221 212 232 267 247 185 180 168 170 206 203 202 210 211 218 212 208 198 190 184 181 178 175 172 170 169 168 170 170 167 162 157 150 148 148 149 149 148 161 170 189 198 207 224
223 186 188 205 203 221 224 234 229 201 207 203 185 212 261 288 267 244 233 223 227 226 214 196 188 186 182 178 175 170 169 168 166 166 166 163 161 157 155 155 158 161 166 179 191 204 210 215 225
183 186 197 206 243 233 230 235 333 214 201 204 214 238 271 299 271 255 245 236 233 232 210 193 185 179 179 180 177 169 166 166 169 170 168 166 165 164 164 163 166 172 181 189 206 217 214 227 235
231 211 201 213 218 241 250 268 34 291 208 216 233 275 352 312 320 308 267 244 229 224 198 196 192 181 182 181 177 171 166 167 170 169 168 168 170 168 168 169 174 182 190 197 211 222 223 236 244
Height
1522 1524 1526 1529 1529 1523 1516 1511 1512 1514 1516 1519 1520 1521 1520 1520 1523 1528 1528 1527 1529 1531 1534 1537 1539 1541 1543 1545 1547 1548 1549 1550 1551 1552 1553 1554 1554 1555 1555 1556 1556 1556 1556 1556 1556 1556 1555 1555 1555
1522 1524 1527 1527 1521 1518 1511 1508 1512 1513 1517 1520 1521 1521 1521 1522 1524 1525 1525 1527 1530 1532 1535 1537 1540 1542 1544 1546 1547 1549 1550 1551 1552 1553 1554 1555 1555 1556 1557 1557 1557 1557 1557 1557 1557 1557 1557 1556 1556
1521 1523 1526 1521 1514 1508 1505 1506 1510 1515 1518 1519 1520 1521 1521 1523 1524 1525 1525 1527 1530 1533 1536 1538 1540 1543 1545 1546 1548 1550 1551 1552 1553 1554 1555 1556 1556 1557 1558 1558 1558 1558 1558 1558 1558 1558 1558 1557 1557
1521 1524 1523 1517 1508 1504 1503 1507 1511 1514 1517 1519 1519 1520 1522 1523 1524 1524 1525 1528 1531 1534 1536 1538 1541 1543 1545 1547 1549 1550 1552 1553 1554 1555 1556 1556 1557 1558 1558 1559 1559 1559 1559 1559 1559 1559 1559 1558 1558
1519 1520 1516 1511 1505 1503 1506 1510 1512 1512 1514 1517 1518 1518 1521 1522 1522 1524 1526 1529 1532 1534 1537 1539 1541 1544 1546 1548 1550 1551 1552 1553 1554 1556 1556 1557 1558 1559 1559 1560 1560 1560 1560 1560 1560 1560 1559 1559 1559
1518 1514 1509 1504 1502 1503 1507 1510 1512 1512 1513 1516 1517 1518 1520 1522 1522 1524 1526 1529 1532 1534 1537 1539 1542 1544 1547 1548 1550 1552 1553 1554 1555 1556 1557 1558 1559 1560 1560 1560 1561 1561 1561 1561 1561 1561 1560 1560 1559
1514 1509 1502 1499 1499 1502 1505 1509 1510 1510 1512 1515 1516 1517 1519 1521 1522 1524 1527 1529 1532 1535 1537 1539 1542 1545 1547 1549 1551 1552 1554 1555 1556 1557 1558 1559 1560 1560 1561 1561 1561 1562 1562 1562 1561 1561 1561 1561 1560
1510 1508 1503 1500 1499 1499 1504 1507 1509 1510 1511 1515 1516 1516 1517 1520 1521 1524 1527 1529 1532 1535 1537 1540 1542 1545 1547 1549 1551 1552 1554 1556 1557 1558 1559 1560 1560 1561 1561 1562 1562 1562 1562 1562 1562 1562 1562 1561 1561
1509 1508 1499 1497 1499 1499 1504 1506 1509 1510 1512 1514 1515 1516 1517 1518 1521 1524 1526 1529 1532 1534 1537 1539 1542 1544 1546 1549 1550 1553 1554 1556 1557 1558 1559 1560 1561 1562 1562 1562 1563 1563 1563 1563 1563 1562 1562 1562 1561
1506 1501 1496 1498 1501 1502 1505 1505 1507 1509 1510 1512 1514 1515 1516 1517 1520 1523 1525 1528 1530 1533 1535 1538 1540 1543 1545 1548 1550 1552 1554 1555 1557 1558 1559 1560 1561 1562 1562 1562 1563 1563 1563 1563 1563 1563 1562 1562 1562
1502 1498 1498 1502 1504 1505 1505 1506 1506 1506 1506 1508 1511 1513 1515 1517 1519 1522 1524 1527 1529 1532 1534 1537 1539 1542 1544 1546 1549 1551 1553 1554 1556 1557 1559 1560 1560 1561 1562 1562 1562 1563 1563 1563 1563 1562 1562 1562 1562
1500 1500 1501 1502 1504 1505 1505 1505 1506 1505 1506 1508 1510 1511 1513 1515 1517 1520 1523 1525 1528 1530 1533 1535 1538 1540 1543 1545 1547 1549 1551 1553 1555 1556 1557 1559 1560 1560 1561 1562 1562 1562 1562 1562 1562 1562 1562 1562 1562
1498 1499 1501 1503 1503 1504 1505 1505 1505 1505 1506 1507 1508 1511 1512 1514 1516 1519 1521 1524 1526 1529 1531 1533 1536 1539 1541 1544 1546 1548 1550 1552 1553 1555 1556 1558 1559 1559 1560 1561 1561 1561 1562 1562 1562 1562 1561 1561 1561
1496 1498 1500 1501 1502 1503 1504 1504 1505 1504 1505 1506 1507 1509 1511 1513 1515 1517 1519 1522 1524 1527 1529 1532 1534 1537 1540 1542 1544 1546 1548 1550 1552 1553 1555 1556 1557 1558 1559 1560 1560 1561 1561 1561 1561 1561 1560 1560 1560
1496 1498 1498 1499 1500 1501 1503 1501 1502 1504 1505 1505 1506 1508 1510 1512 1514 1515 1517 1520 1522 1525 1527 1530 1532 1535 1538 1540 1542 1544 1546 1548 1550 1551 1553 1554 1555 1557 1558 1559 1559 1559 1559 1559 1559 1559 1559 1559 1558
1494 1494 1495 1495 1498 1499 1502 1496 1500 1503 1504 1504 1506 1507 1509 1510 1512 1514 1516 1519 1521 1523 1526 1528 1531 1533 1536 1538 1540 1542 1544 1546 1548 1550 1551 1553 1554 1555 1556 1557 1557 1558 1558 1558 1558 1558 1558 1557 1557
1490 1490 1490 1493 1496 1497 1497 1495 1499 1501 1503 1503 1504 1506 1507 1509 1511 1512 1515 1517 1519 1521 1524 1527 1529 1531 1534 1536 1538 1540 1542 1544 1546 1548 1549 1551 1552 1553 1554 1555 1556 1556 1556 1556 1556 1556 1556 1556 1555
1485 1485 1487 1489 1492 1494 1494 1495 1498 1499 1501 1502 1503 1504 1506 1507 1509 1511 1513 1515 1518 1520 1522 1525 1528 1530 1532 1534 1536 1538 1540 1542 1544 1546 1547 1549 1550 1551 1552 1553 1553 1554 1554 1555 1555 1555 1554 1554 1554
1483 1484 1486 1488 1492 1493 1493 1494 1496 1498 1499 1500 1501 1502 1504 1506 1508 1509 1511 1513 1515 1518 1520 1523 1526 1528 1530 1532 1533 1535 1537 1539 1542 1544 1545 1547 1548 1549 1550 1551 1551 1552 1552 1553 1553 1553 1553 1552 1552
1484 1485 1487 1490 1492 1492 1492 1494 1494 1495 1496 1498 1499 1500 1502 1504 1506 1507 1509 1511 1513 1515 1518 1521 1523 1526 1528 1530 1532 1534 1536 1537 1539 1541 1543 1544 1545 1546 1547 1548 1549 1550 1550 1551 1551 1551 1551 1550 1550
1485 1485 1487 1489 1492 1492 1493 1493 1492 1493 1495 1497 1498 1499 1500 1501 1503 1505 1507 1509 1511 1513 1516 1518 1521 1523 1525 1527 1530 1532 1533 1535 1537 1539 1540 1542 1543 1544 1545 1546 1547 1547 1548 1548 1548 1549 1549 1548 1548
1484 1486 1487 1488 1489 1491 1491 1488 1485 1488 1491 1494 1495 1497 1498 1500 1501 1503 1505 1507 1509 1511 1514 1516 1518 1520 1523 1525 1527 1529 1531 1531 1534 1536 1538 1539 1540 1541 1542 1543 1544 1545 1545 1546 1546 1546 1546 1546 1545
1485 1487 1488 1488 1488 1490 1488 1487 1480 1484 1487 1489 1492 1494 1496 1498 1499 1501 1503 1505 1507 1509 1511 1514 1516 1518 1521 1523 1525 1527 1528 1530 1532 1534 1535 1536 1537 1539 1539 1540 1541 1542 1542 1543 1543 1544 1544 1543 1543
1488 1488 1489 1489 1490 1490 1486 1483 1476 1479 1481 1484 1489 1492 1494 1496 1498 1499 1501 1503 1505 1506 1508 1511 1514 1516 1518 1520 1523 1524 1526 1528 1530 1531 1532 1533 1534 1536 1537 1538 1538 1539 1540 1540 1541 1541 1540 1540 1540
1488 1488 1489 1489 1488 1483 1483 1481 1475 1477 1481 1484 1487 1490 1492 1494 1496 1497 1499 1501 1502 1504 1506 1508 1511 1513 1515 1518 1520 1522 1524 1525 1527 1528 1529 1530 1531 1533 1534 1535 1536 1536 1537 1537 1538 1538 1537 1537 1537
1488 1488 1486 1483 1479 1477 1483 1478 1474 1480 1483 1485 1487 1488 1491 1492 1493 1495 1497 1498 1500 1502 1504 1506 1508 1510 1513 1515 1517 1519 1521 1523 1525 1526 1527 1528 1529 1530 1531 1532 1533 1534 1534 1535 1535 1535 1535 1535 1534
1488 1488 1489 1487 1483 1480 1477 1477 1478 1481 1482 1484 1486 1487 1489 1490 1491 1493 1494 1496 1497 1499 1501 1504 1505 1507 1510 1512 1514 1516 1518 1520 1522 1523 1524 1525 1527 1528 1529 1530 1530 1531 1531 1531 1532 1532 1532 1532 1531
1489 1489 1489 1487 1482 1475 1473 1473 1469 1478 1480 1483 1485 1486 1487 1488 1490 1491 1492 1494 1495 1497 1499 1501 1503 1505 1507 1509 1511 1513 1515 1517 1518 1519 1521 1522 1523 1524 1525 1526 1527 1528 1528 1529 1529 1528 1528 1528 1528
1491 1491 1488 1486 1484 1475 1472 1470 1475 1477 1479 1482 1484 1485 1486 1488 1488 1489 1491 1492 1493 1495 1496 1498 1500 1502 1504 1506 1508 1510 1512 1513 1515 1516 1518 1519 1520 1521 1522 1523 1524 1524 1525 1525 1525 1525 1524 1524 1524
1491 1489 1487 1485 1485 1480 1472 1476 1481 1481 1482 1483 1484 1485 1486 1487 1487 1488 1489 1490 1491 1492 1493 1495 1497 1499 1501 1503 1505 1507 1509 1510 1512 1513 1514 1515 1517 1518 1519 1519 1520 1521 1521 1522 1522 1522 1521 1521 1520